Skip Page Navigation
NASA JPL Caltech
NASA Logo - Jet Propulsion Laboratory + View the NASA Portal
+ Center for Near-Earth Object Studies
JPL Home Earth Solar System Stars & Galaxies Technology
JPL Solar System Dynamics
BODIES ORBITS EPHEMERIDES TOOLS PHYSICAL DATA DISCOVERY FAQ SITE MAP
JPL Small-Body Database Browser
Search: [ help ]  
(2020 FV6)
Classification: Apollo [NEO]          SPK-ID: 54016424
Ephemeris | Orbit Diagram | Orbital Elements | Mission Design | Physical Parameters | Close-Approach Data ]

[ hide orbit diagram ]

For accurate long-term ephemerides, please instead use our Horizons system.This orbit viewer was implemented using two-body methods, and hence should not be used for determining accurate long-term trajectories (over several years or decades) or planetary encounter circumstances.


Orbital Elements at Epoch 2459200.5 (2020-Dec-17.0) TDB
Reference: JPL 14 (heliocentric ecliptic J2000)
 Element Value Uncertainty (1-sigma)   Units 
e .7244907859921417 0.00071624  
a 2.644801285218989 0.0063571 au
q .7286671232976571 0.00014286 au
i 3.176333502133707 0.0024106 deg
node 29.00817596229945 0.0011206 deg
peri 252.4439788852593 0.0019003 deg
M 45.55620676641986 0.16049 deg
tp 2459001.692368012932
(2020-Jun-01.19236801)
0.016422 TDB
period 1571.042731505477
4.30
5.6643
0.01551
d
yr
n .2291471726265678 0.00082618 deg/d
Q 4.560935447140321 0.010963 au
  Orbit Determination Parameters
   # obs. used (total)      95  
   data-arc span      19 days  
   first obs. used      2020-03-29  
   last obs. used      2020-04-17  
   planetary ephem.      DE441  
   SB-pert. ephem.      SB441-N16  
   condition code      7  
   norm. resid. RMS      .53639  
   source      ORB  
   producer      Otto Matic  
   solution date      2021-Apr-15 22:21:19  

Additional Information
 Earth MOID = .0025053 au 
 Jupiter MOID = .675956 au 
 T_jup = 2.949 
[ show covariance matrix ]

Ephemeris | Orbit Diagram | Orbital Elements | Mission Design | Physical Parameters | Close-Approach Data ]

Physical Parameter Table
Parameter Symbol Value Units Sigma Reference Notes
absolute magnitude H 23.0   .53274 E2020H25 autocmod 2.8

[ show close-approach data ]
Ephemeris | Orbit Diagram | Orbital Elements | Mission Design | Physical Parameters | Close-Approach Data ]
ABOUT SSD CREDITS/AWARDS PRIVACY/COPYRIGHT GLOSSARY LINKS
FirstGov 2021-Apr-23 10:05 UT
(server date/time)  
NASA Home Page
Site Manager:   Ryan S. Park
Webmaster  Alan B. Chamberlin